TTW797 ROAH-RCNN

Flight info

Callsign TTW797
Flight time N/A
Altitude 34000
Route GANJU Y576 LILRA R595 APU W4 TNN
Aircraft A320/M-SDE3FGHIRWY/LB1

Departure

Time 2026-04-26 00:21
Airport Naha International Airport (ROAH)

Arrival

Time N/A
Airport Tainan International Airport / Tainan Air Base (RCNN)
Time Latitude Longitude Altitude Speed Heading
2026-04-26 00:04 26.21007 127.64980 25 ft 0 kts 88°
2026-04-26 00:10 26.21007 127.64979 21 ft 1 kts 88°
2026-04-26 00:10 26.21006 127.64952 21 ft 4 kts 87°
2026-04-26 00:10 26.21005 127.64927 21 ft 3 kts 86°
2026-04-26 00:11 26.20998 127.64901 20 ft 4 kts 45°
2026-04-26 00:11 26.20976 127.64887 22 ft 4 kts
2026-04-26 00:11 26.20956 127.64883 36 ft 4 kts 20°
2026-04-26 00:11 26.20934 127.64868 17 ft 4 kts 51°
2026-04-26 00:12 26.20920 127.64843 22 ft 4 kts 72°
2026-04-26 00:12 26.20914 127.64814 21 ft 4 kts 84°
2026-04-26 00:12 26.20912 127.64784 19 ft 4 kts 88°
2026-04-26 00:12 26.20916 127.64756 18 ft 4 kts 126°
2026-04-26 00:13 26.20936 127.64739 20 ft 4 kts 160°
2026-04-26 00:13 26.20961 127.64730 19 ft 4 kts 175°
2026-04-26 00:13 26.20987 127.64735 19 ft 4 kts 202°
2026-04-26 00:13 26.21006 127.64744 19 ft 4 kts 199°
2026-04-26 00:14 26.21032 127.64751 19 ft 4 kts 185°
2026-04-26 00:14 26.21052 127.64751 19 ft 0 kts 178°
2026-04-26 00:15 26.21030 127.64750 19 ft 12 kts 188°
2026-04-26 00:15 26.20887 127.64732 17 ft 24 kts 176°
2026-04-26 00:16 26.20723 127.64740 17 ft 23 kts 178°
2026-04-26 00:16 26.20568 127.64747 17 ft 22 kts 177°
2026-04-26 00:16 26.20422 127.64753 18 ft 21 kts 177°
2026-04-26 00:16 26.20281 127.64760 17 ft 20 kts 178°
2026-04-26 00:17 26.20134 127.64767 17 ft 21 kts 178°
2026-04-26 00:17 26.19992 127.64774 18 ft 20 kts 177°
2026-04-26 00:17 26.19842 127.64781 17 ft 23 kts 177°
2026-04-26 00:17 26.19689 127.64788 17 ft 22 kts 177°
2026-04-26 00:18 26.19522 127.64796 17 ft 27 kts 178°
2026-04-26 00:18 26.19401 127.64802 17 ft 26 kts 177°
2026-04-26 00:18 26.19226 127.64810 17 ft 25 kts 178°
2026-04-26 00:18 26.19057 127.64818 17 ft 23 kts 177°
2026-04-26 00:19 26.18898 127.64826 17 ft 22 kts 177°
2026-04-26 00:19 26.18745 127.64833 17 ft 22 kts 178°
2026-04-26 00:19 26.18593 127.64840 18 ft 22 kts 178°
2026-04-26 00:19 26.18436 127.64848 17 ft 22 kts 177°
2026-04-26 00:20 26.18299 127.64854 17 ft 17 kts 181°
2026-04-26 00:20 26.18242 127.64772 16 ft 14 kts 269°
2026-04-26 00:20 26.18257 127.64668 16 ft 14 kts 311°
2026-04-26 00:20 26.18337 127.64647 17 ft 11 kts 358°
2026-04-26 00:21 26.18517 127.64639 16 ft 55 kts 357°
2026-04-26 00:21 26.19101 127.64610 19 ft 110 kts 358°
2026-04-26 00:21 26.20020 127.64566 24 ft 152 kts 356°
2026-04-26 00:21 26.21066 127.64540 652 ft 147 kts 358°
2026-04-26 00:22 26.22081 127.64489 1338 ft 145 kts 356°
2026-04-26 00:22 26.23101 127.64442 1915 ft 151 kts 355°
2026-04-26 00:22 26.24213 127.64388 2179 ft 173 kts 356°
2026-04-26 00:22 26.25503 127.64289 2475 ft 198 kts 346°
2026-04-26 00:23 26.26861 127.63695 2854 ft 223 kts 333°
2026-04-26 00:23 26.28268 127.62794 3442 ft 240 kts 329°
2026-04-26 00:23 26.29696 127.61807 4346 ft 243 kts 328°
2026-04-26 00:23 26.31152 127.60806 5221 ft 249 kts 328°
2026-04-26 00:24 26.32648 127.59805 6113 ft 253 kts 327°
2026-04-26 00:24 26.34179 127.58780 6861 ft 259 kts 322°
2026-04-26 00:24 26.35404 127.57307 7588 ft 262 kts 297°
2026-04-26 00:24 26.35933 127.55346 8295 ft 271 kts 272°
2026-04-26 00:25 26.35589 127.53297 9133 ft 272 kts 244°
2026-04-26 00:25 26.34599 127.51492 9938 ft 275 kts 236°
2026-04-26 00:25 26.33515 127.49679 10412 ft 292 kts 235°
2026-04-26 00:25 26.32341 127.47720 10611 ft 315 kts 235°
2026-04-26 00:26 26.31090 127.45629 10981 ft 329 kts 236°
2026-04-26 00:26 26.29808 127.43483 11591 ft 335 kts 236°
2026-04-26 00:26 26.28514 127.41306 12278 ft 339 kts 235°
2026-04-26 00:26 26.27210 127.39110 12983 ft 341 kts 235°
2026-04-26 00:27 26.25899 127.36899 13677 ft 343 kts 235°
2026-04-26 00:27 26.24588 127.34692 14290 ft 346 kts 235°
2026-04-26 00:27 26.23253 127.32454 14943 ft 348 kts 234°
2026-04-26 00:27 26.21877 127.30176 15540 ft 358 kts 238°
2026-04-26 00:28 26.20521 127.27871 16310 ft 355 kts 238°
2026-04-26 00:28 26.19177 127.25569 16971 ft 354 kts 238°
2026-04-26 00:28 26.17824 127.23272 17612 ft 355 kts 237°
2026-04-26 00:28 26.16463 127.20992 18341 ft 353 kts 237°
2026-04-26 00:29 26.15098 127.18721 18912 ft 353 kts 236°
2026-04-26 00:29 26.13730 127.16451 19453 ft 354 kts 236°
2026-04-26 00:29 26.12358 127.14167 19995 ft 356 kts 236°
2026-04-26 00:29 26.10981 127.11869 20531 ft 358 kts 236°
2026-04-26 00:30 26.09613 127.09589 21028 ft 360 kts 236°
2026-04-26 00:30 26.08219 127.07266 21540 ft 361 kts 236°
2026-04-26 00:30 26.06819 127.04929 21979 ft 364 kts 236°
2026-04-26 00:30 26.05405 127.02568 22428 ft 367 kts 236°
2026-04-26 00:31 26.03984 127.00199 22894 ft 369 kts 236°
2026-04-26 00:31 26.02557 126.97819 23417 ft 370 kts 235°
2026-04-26 00:31 26.01127 126.95439 23887 ft 371 kts 235°
2026-04-26 00:31 25.99697 126.93050 24293 ft 372 kts 236°
2026-04-26 00:32 25.98297 126.90621 24698 ft 374 kts 237°
2026-04-26 00:32 25.96923 126.88156 25082 ft 375 kts 237°
2026-04-26 00:32 25.94204 126.83178 25844 ft 379 kts 237°
2026-04-26 00:33 25.92833 126.80674 26222 ft 380 kts 237°
2026-04-26 00:33 25.91448 126.78161 26603 ft 382 kts 237°
2026-04-26 00:33 25.90052 126.75641 26985 ft 384 kts 237°
2026-04-26 00:33 25.88644 126.73111 27382 ft 386 kts 237°
2026-04-26 00:34 25.87247 126.70609 27754 ft 388 kts 236°
2026-04-26 00:34 25.85820 126.68060 28121 ft 390 kts 236°
2026-04-26 00:34 25.84382 126.65494 28485 ft 391 kts 236°
2026-04-26 00:34 25.82942 126.62922 28848 ft 393 kts 236°
2026-04-26 00:35 25.81491 126.60328 29192 ft 395 kts 236°
2026-04-26 00:35 25.80042 126.57731 29610 ft 396 kts 236°
2026-04-26 00:35 25.78598 126.55142 30135 ft 394 kts 236°
2026-04-26 00:35 25.77157 126.52561 30584 ft 392 kts 236°
2026-04-26 00:36 25.75742 126.50028 31046 ft 390 kts 236°
2026-04-26 00:36 25.74316 126.47474 31480 ft 389 kts 237°
2026-04-26 00:36 25.72894 126.44932 31915 ft 387 kts 236°
2026-04-26 00:36 25.71474 126.42395 32363 ft 386 kts 236°
2026-04-26 00:37 25.70062 126.39873 32813 ft 384 kts 236°
2026-04-26 00:37 25.68652 126.37359 33266 ft 383 kts 236°
2026-04-26 00:37 25.67249 126.34860 33715 ft 381 kts 236°
2026-04-26 00:37 25.65845 126.32361 33978 ft 381 kts 236°
2026-04-26 00:38 25.63017 126.27330 34015 ft 386 kts 236°
2026-04-26 00:38 25.60177 126.22286 34020 ft 385 kts 236°
2026-04-26 00:39 25.57338 126.17248 34009 ft 386 kts 236°
2026-04-26 00:39 25.54511 126.12243 34019 ft 386 kts 236°
2026-04-26 00:40 25.51667 126.07203 34019 ft 386 kts 236°
2026-04-26 00:40 25.48823 126.02166 34020 ft 386 kts 236°
2026-04-26 00:41 25.45977 125.97130 34017 ft 386 kts 236°
2026-04-26 00:41 25.43128 125.92096 34022 ft 386 kts 236°
2026-04-26 00:42 25.40274 125.87061 34005 ft 385 kts 236°
2026-04-26 00:42 25.37416 125.82040 34022 ft 385 kts 236°
2026-04-26 00:43 25.34567 125.77027 34032 ft 385 kts 236°
2026-04-26 00:43 25.31717 125.72010 34053 ft 385 kts 236°
2026-04-26 00:44 25.28880 125.67033 34047 ft 385 kts 236°
2026-04-26 00:44 25.26027 125.62030 34040 ft 385 kts 236°
2026-04-26 00:45 25.23171 125.57021 34009 ft 385 kts 237°
2026-04-26 00:45 25.20320 125.52023 34019 ft 385 kts 237°
2026-04-26 00:46 25.17464 125.47024 34053 ft 385 kts 237°
2026-04-26 00:46 25.14607 125.42028 34047 ft 385 kts 237°
2026-04-26 00:47 25.11747 125.37033 34047 ft 384 kts 236°
2026-04-26 00:47 25.08906 125.32088 34044 ft 384 kts 236°
2026-04-26 00:48 25.06046 125.27109 34011 ft 384 kts 237°
2026-04-26 00:48 25.03192 125.22133 34046 ft 384 kts 237°
2026-04-26 00:49 25.00332 125.17171 34043 ft 383 kts 237°
2026-04-26 00:49 24.97468 125.12212 34041 ft 383 kts 237°
2026-04-26 00:50 24.94605 125.07246 34043 ft 384 kts 237°
2026-04-26 00:50 24.91744 125.02291 34038 ft 383 kts 237°
2026-04-26 00:51 24.88888 124.97343 34027 ft 383 kts 237°
2026-04-26 00:51 24.86031 124.92397 34027 ft 383 kts 237°
2026-04-26 00:52 24.83821 124.87124 34026 ft 387 kts 253°
2026-04-26 00:52 24.83476 124.84128 34025 ft 393 kts 264°
2026-04-26 00:52 24.83691 124.81100 34024 ft 400 kts 271°
2026-04-26 00:53 24.84434 124.75069 34022 ft 400 kts 271°
2026-04-26 00:53 24.85165 124.68986 34052 ft 400 kts 271°
2026-04-26 00:54 24.85897 124.62907 34047 ft 400 kts 271°
2026-04-26 00:54 24.86623 124.56821 34043 ft 400 kts 271°
2026-04-26 00:55 24.87355 124.50744 34042 ft 400 kts 271°
2026-04-26 00:55 24.88085 124.44664 34062 ft 400 kts 271°
2026-04-26 00:56 24.88800 124.38641 34053 ft 399 kts 271°
2026-04-26 00:56 24.89517 124.32585 34050 ft 398 kts 270°
2026-04-26 00:57 24.90229 124.26535 34055 ft 398 kts 270°
2026-04-26 00:57 24.90941 124.20484 34083 ft 397 kts 271°
2026-04-26 00:58 24.91657 124.14453 34071 ft 396 kts 271°
2026-04-26 00:58 24.92356 124.08440 34071 ft 395 kts 270°
2026-04-26 00:59 24.93049 124.02483 34061 ft 394 kts 271°
2026-04-26 00:59 24.93734 123.96496 34058 ft 393 kts 270°
2026-04-26 01:00 24.94362 123.90514 34075 ft 393 kts 270°
2026-04-26 01:00 24.94981 123.84534 34066 ft 393 kts 270°
2026-04-26 01:01 24.95610 123.78553 34024 ft 392 kts 270°
2026-04-26 01:01 24.96242 123.72579 34035 ft 392 kts 270°
2026-04-26 01:02 24.96866 123.66604 34054 ft 392 kts 271°
2026-04-26 01:02 24.97489 123.60644 34052 ft 392 kts 271°
2026-04-26 01:03 24.98110 123.54682 34050 ft 392 kts 271°
2026-04-26 01:03 24.98726 123.48723 34048 ft 391 kts 271°
2026-04-26 01:04 24.99333 123.42789 34049 ft 392 kts 271°
2026-04-26 01:04 24.99948 123.36811 34049 ft 392 kts 271°
2026-04-26 01:05 25.00562 123.30840 34050 ft 392 kts 271°
2026-04-26 01:05 25.01066 123.25872 34050 ft 392 kts 271°
2026-04-26 01:06 25.01670 123.19887 34055 ft 392 kts 271°
2026-04-26 01:06 25.02365 123.12942 34080 ft 393 kts 272°
2026-04-26 01:07 25.02872 123.07922 34075 ft 393 kts 272°
2026-04-26 01:07 25.03477 123.01958 34069 ft 394 kts 272°
2026-04-26 01:08 25.04079 122.95959 34067 ft 394 kts 272°
2026-04-26 01:08 25.04672 122.89957 34065 ft 394 kts 272°
2026-04-26 01:09 25.05267 122.83951 34074 ft 394 kts 273°
2026-04-26 01:09 25.05859 122.77937 34071 ft 395 kts 273°
2026-04-26 01:10 25.06451 122.71910 34072 ft 395 kts 273°
2026-04-26 01:10 25.07045 122.65885 34070 ft 395 kts 273°
2026-04-26 01:11 25.07634 122.59858 34089 ft 395 kts 274°
2026-04-26 01:11 25.08216 122.53823 34074 ft 396 kts 274°
2026-04-26 01:12 25.08799 122.47814 34065 ft 396 kts 274°
2026-04-26 01:12 25.09383 122.41767 34059 ft 396 kts 274°
2026-04-26 01:13 25.09960 122.35720 34056 ft 396 kts 274°
2026-04-26 01:13 25.10542 122.29651 34051 ft 397 kts 275°
2026-04-26 01:14 25.11096 122.23580 34048 ft 398 kts 275°
2026-04-26 01:14 25.11595 122.17520 34046 ft 399 kts 274°
2026-04-26 01:15 25.12096 122.11411 34056 ft 400 kts 275°
2026-04-26 01:15 25.12602 122.05296 34051 ft 401 kts 276°
2026-04-26 01:16 25.13126 121.99164 34053 ft 402 kts 275°
2026-04-26 01:16 25.13710 121.93027 34072 ft 402 kts 276°
2026-04-26 01:17 25.14327 121.86902 34070 ft 402 kts 276°
2026-04-26 01:17 25.14940 121.80771 34070 ft 402 kts 276°
2026-04-26 01:18 25.15535 121.74635 34060 ft 403 kts 277°
2026-04-26 01:18 25.15335 121.68474 34047 ft 410 kts 255°
2026-04-26 01:19 25.14066 121.65634 34041 ft 420 kts 239°
2026-04-26 01:19 25.12036 121.63265 34036 ft 429 kts 227°
2026-04-26 01:19 25.07510 121.58927 34037 ft 432 kts 226°
2026-04-26 01:20 25.02948 121.54606 34037 ft 433 kts 226°
2026-04-26 01:20 24.98414 121.50290 33991 ft 434 kts 227°
2026-04-26 01:21 24.93823 121.45898 34051 ft 437 kts 227°
2026-04-26 01:21 24.89216 121.41509 34065 ft 437 kts 227°
2026-04-26 01:22 24.84608 121.37125 34083 ft 437 kts 227°
2026-04-26 01:22 24.80038 121.32775 34091 ft 436 kts 227°
2026-04-26 01:23 24.75444 121.28408 34082 ft 436 kts 227°
2026-04-26 01:23 24.70843 121.24042 34100 ft 437 kts 227°
2026-04-26 01:24 24.66223 121.19657 34068 ft 439 kts 227°
2026-04-26 01:24 24.61595 121.15276 34057 ft 440 kts 227°
2026-04-26 01:25 24.56972 121.10899 34063 ft 441 kts 227°
2026-04-26 01:25 24.52347 121.06528 34080 ft 435 kts 227°
2026-04-26 01:26 24.50051 121.04359 33887 ft 436 kts 227°
2026-04-26 01:26 24.47751 121.02185 33621 ft 435 kts 227°
2026-04-26 01:26 24.45455 121.00017 33369 ft 434 kts 227°
2026-04-26 01:26 24.43153 120.97844 32712 ft 438 kts 227°
2026-04-26 01:27 24.40834 120.95659 32077 ft 437 kts 227°
2026-04-26 01:27 24.38538 120.93506 31679 ft 432 kts 227°
2026-04-26 01:27 24.36297 120.91404 31203 ft 429 kts 228°
2026-04-26 01:27 24.34037 120.89281 30678 ft 427 kts 228°
2026-04-26 01:28 24.31783 120.87159 30143 ft 425 kts 228°
2026-04-26 01:28 24.29554 120.85060 29615 ft 421 kts 228°
2026-04-26 01:28 24.27340 120.82978 29072 ft 418 kts 228°
2026-04-26 01:28 24.25138 120.80912 28525 ft 415 kts 228°
2026-04-26 01:29 24.22948 120.78858 27989 ft 413 kts 228°
2026-04-26 01:29 24.20767 120.76812 27468 ft 411 kts 227°
2026-04-26 01:29 24.18601 120.74779 26964 ft 408 kts 227°
2026-04-26 01:29 24.16459 120.72771 26180 ft 403 kts 227°
2026-04-26 01:30 24.14337 120.70782 25343 ft 400 kts 227°
2026-04-26 01:30 24.12228 120.68807 24528 ft 398 kts 227°
2026-04-26 01:30 24.10158 120.66868 23742 ft 395 kts 227°
2026-04-26 01:30 24.08080 120.64924 22903 ft 390 kts 227°
2026-04-26 01:31 24.06026 120.63004 22348 ft 386 kts 227°
2026-04-26 01:31 24.03991 120.61098 21871 ft 383 kts 227°
2026-04-26 01:31 24.01973 120.59209 21397 ft 381 kts 227°
2026-04-26 01:31 23.99968 120.57333 20928 ft 378 kts 227°
2026-04-26 01:32 23.97979 120.55475 20464 ft 375 kts 226°
2026-04-26 01:32 23.96005 120.53632 19987 ft 372 kts 226°
2026-04-26 01:32 23.94045 120.51802 19512 ft 369 kts 226°
2026-04-26 01:32 23.92081 120.50010 19020 ft 368 kts 222°
2026-04-26 01:33 23.89886 120.48534 18526 ft 372 kts 211°
2026-04-26 01:33 23.87471 120.47499 17961 ft 373 kts 204°
2026-04-26 01:33 23.85017 120.46613 17423 ft 369 kts 204°
2026-04-26 01:33 23.82620 120.45746 16900 ft 365 kts 204°
2026-04-26 01:34 23.80219 120.44873 16373 ft 362 kts 204°
2026-04-26 01:34 23.77846 120.44008 15842 ft 358 kts 204°
2026-04-26 01:34 23.75491 120.43145 15311 ft 355 kts 203°
2026-04-26 01:34 23.73157 120.42291 14773 ft 352 kts 203°
2026-04-26 01:35 23.70846 120.41447 14259 ft 349 kts 203°
2026-04-26 01:35 23.68554 120.40613 13710 ft 346 kts 203°
2026-04-26 01:35 23.66281 120.39791 13152 ft 342 kts 202°
2026-04-26 01:35 23.64018 120.38972 12634 ft 342 kts 202°
2026-04-26 01:36 23.61774 120.38159 12112 ft 337 kts 202°
2026-04-26 01:36 23.59563 120.37357 11595 ft 333 kts 202°
2026-04-26 01:36 23.57388 120.36565 11145 ft 324 kts 202°
2026-04-26 01:37 23.53395 120.35119 10892 ft 282 kts 202°
2026-04-26 01:37 23.51582 120.34459 10672 ft 269 kts 202°
2026-04-26 01:37 23.49820 120.33812 10359 ft 263 kts 202°
2026-04-26 01:37 23.48082 120.33171 10209 ft 264 kts 202°
2026-04-26 01:38 23.46338 120.32528 10087 ft 265 kts 202°
2026-04-26 01:38 23.44619 120.31900 9959 ft 264 kts 202°
2026-04-26 01:38 23.42861 120.31260 9429 ft 271 kts 201°
2026-04-26 01:38 23.41071 120.30608 9202 ft 267 kts 201°
2026-04-26 01:39 23.39338 120.29978 9036 ft 259 kts 201°
2026-04-26 01:39 23.37634 120.29359 8781 ft 257 kts 201°
2026-04-26 01:39 23.35952 120.28747 8566 ft 252 kts 201°
2026-04-26 01:39 23.34316 120.28154 8271 ft 244 kts 201°
2026-04-26 01:40 23.32710 120.27573 7861 ft 242 kts 200°
2026-04-26 01:40 23.31120 120.26998 7451 ft 240 kts 200°
2026-04-26 01:40 23.29532 120.26424 6991 ft 239 kts 200°
2026-04-26 01:40 23.27958 120.25853 6575 ft 238 kts 200°
2026-04-26 01:41 23.26392 120.25283 6083 ft 238 kts 199°
2026-04-26 01:41 23.24801 120.24704 5465 ft 243 kts 199°
2026-04-26 01:41 23.23205 120.24125 4885 ft 246 kts 198°
2026-04-26 01:41 23.21590 120.23539 4387 ft 244 kts 198°
2026-04-26 01:42 23.19965 120.22952 3892 ft 242 kts 198°
2026-04-26 01:42 23.18397 120.22386 3413 ft 240 kts 199°
2026-04-26 01:42 23.16821 120.21816 3037 ft 234 kts 199°
2026-04-26 01:42 23.15323 120.21275 2988 ft 213 kts 199°
2026-04-26 01:43 23.13962 120.20782 3013 ft 201 kts 199°
2026-04-26 01:43 23.12638 120.20435 3005 ft 197 kts 186°
2026-04-26 01:43 23.11270 120.20380 2878 ft 196 kts 180°
2026-04-26 01:43 23.09913 120.20398 2695 ft 193 kts 179°
2026-04-26 01:44 23.08570 120.20428 2436 ft 193 kts 178°
2026-04-26 01:44 23.07219 120.20461 2172 ft 191 kts 179°
2026-04-26 01:44 23.05979 120.20491 1926 ft 169 kts 179°
2026-04-26 01:44 23.04849 120.20518 1724 ft 157 kts 179°
2026-04-26 01:45 23.03767 120.20544 1527 ft 154 kts 179°
2026-04-26 01:45 23.02702 120.20570 1326 ft 151 kts 180°
2026-04-26 01:45 23.01659 120.20595 1135 ft 149 kts 179°
2026-04-26 01:45 23.00599 120.20629 890 ft 155 kts 179°
2026-04-26 01:46 22.99519 120.20658 700 ft 156 kts 177°
2026-04-26 01:46 22.98428 120.20679 535 ft 158 kts 179°
2026-04-26 01:46 22.97336 120.20694 324 ft 155 kts 177°
2026-04-26 01:46 22.96276 120.20727 114 ft 150 kts 179°
2026-04-26 01:47 22.95344 120.20748 65 ft 112 kts 175°
2026-04-26 01:47 22.94833 120.20766 64 ft 50 kts 179°